weather.gov     
National Weather Service

Regional Weather Roundup
NWS Homepage
This page is being discontinued on March 12, 2014.
The same data is available at this site. Please update your bookmarks.
Thank you, and we apologize for the inconvenience.
Please send an email to SR-SRH.Webmaster@noaa.gov with any concerns.


Current Version
Previous Version:    01  02  03  04  05  06  07  08  09  10  11  12  13  14  15  16  17  18  19  20  21  22  23  24  25  26  
[Printable]
019
ASUS42 KCAE 200310
RWRCAE
REGIONAL WEATHER ROUNDUP
NATIONAL WEATHER SERVICE COLUMBIA SC
1000 PM EST FRI DEC 19 2014

NOTE: "FAIR" INDICATES FEW OR NO CLOUDS BELOW 12,000 FEET WITH NO
SIGNIFICANT WEATHER AND/OR OBSTRUCTIONS TO VISIBILITY.

NOT ALL STATIONS ARE QUALITY CONTROLLED BY THE NATIONAL
WEATHER SERVICE. USE DATA WITH CAUTION...ESPECIALLY
DEWPOINT OBSERVATIONS.

SCZ001>056-GAZ040-063>065-077-200400-
...UPSTATE SOUTH CAROLINA...

CITY           SKY/WX    TMP DP  RH WIND       PRES   REMARKS
ANDERSON       CLOUDY    46  38  73 CALM      30.15R
LIBERTY        FAIR      43  29  58 MISG      30.13S
SPARTANBURG    FAIR      46  36  66 CALM      30.13F
CLEMSON        CLOUDY    50  35  56 CALM      30.15R
GREENVILLE     CLOUDY    49  32  52 CALM      30.14S
GREENWOOD      MOCLDY    46  38  73 CALM      30.16R
GREER          CLOUDY    47  34  60 CALM      30.12F
ROCK HILL      CLOUDY    41  34  76 CALM      30.15S
LAURENS        FAIR      46  39  76 E6        30.15R


...CENTRAL SOUTH CAROLINA...

CITY           SKY/WX    TMP DP  RH WIND       PRES   REMARKS
COLUMBIA APT   CLOUDY    50  40  68 CALM      30.15S
COLUMBIA OWENS CLOUDY    49  38  65 CALM      30.16R
DARLINGTON     PTCLDY    41  34  75 CALM      30.18S
FLORENCE       MOCLDY    46  35  65 CALM      30.16S
MCENTIRE ANGB  PTCLDY    48  37  65 E6        30.15S
ORANGEBURG     CLOUDY    50  42  74 E5        30.14S
SUMTER SHAW    CLOUDY    46  36  67 E2        30.15R
NEWBERRY       FAIR      45  37  76 CALM      30.18R
AIKEN          FAIR      48  43  81 E3        30.16S
BARNWELL       FAIR      52  45  76 CALM      30.15S
CAMDEN         FAIR      46  32  57 CALM      30.17R
LANCASTER      FAIR      43  36  75 NE3       30.16S
WINNSBORO      FAIR      46  36  66 E6        30.15S


...EASTERN AND COASTAL SOUTH CAROLINA...

CITY           SKY/WX    TMP DP  RH WIND       PRES   REMARKS
MYRTLE BEACH   CLEAR     46  39  76 N6        30.18R
N MYRTLE BCH   MOCLDY    43  39  86 NE6       30.17R
CONWAY         FAIR      41  41 100 CALM      30.17S FOG
MARION         FAIR      45  32  61 CALM      30.17S
HARTSVILLE     FAIR      48  30  49 NE3       30.16F
FLORENCE       MOCLDY    46  35  65 CALM      30.16S
DARLINGTON     PTCLDY    41  34  75 CALM      30.18S
CHARLESTON APT MOCLDY    50  43  77 CALM      30.15S
MOUNT PLEASANT FAIR      48  45  87 CALM      30.15S
WALTERBORO     MOCLDY    48 N/A N/A CALM      30.16S
BEAUFORT       MOCLDY    52  48  86 NE3       30.14S


...EASTERN GEORGIA...

CITY           SKY/WX    TMP DP  RH WIND       PRES   REMARKS
AUGUSTA BUSH F CLOUDY    48  42  80 CALM      30.13F
AUGUSTA DANIEL CLOUDY    54  42  64 CALM      30.13S
THOMSON        CLOUDY    49  46  90 CALM      30.17F
WASHINGTON     FAIR      48  45  87 N3        30.14S
CLAXTON        MOCLDY    46  46 100 CALM      30.15R
SYLVANIA       CLOUDY    48  46  95 CALM      30.14S
STATESBORO     CLOUDY    47  47 100 CALM      30.14S
SAVANNAH       MOCLDY    50  46  86 CALM      30.15S


...SOUTHERN NORTH CAROLINA...

CITY           SKY/WX    TMP DP  RH WIND       PRES   REMARKS
CHARLOTTE      CLOUDY    48  27  44 NE5       30.16S
MONROE         CLOUDY    44  31  60 NE5       30.16R
WADESBORO      CLOUDY    38  35  89 CALM      30.18R
ROCKINGHAM     MOCLDY    42  32  68 NE3       30.18R
RUTHERFORDTON  CLOUDY    42  34  74 CALM      30.14F
ASHEVILLE      CLOUDY    39  25  57 N7        30.14F WCI  34

$$




U.S. Dept. of Commerce
NOAA National Weather Service
1325 East West Highway
Silver Spring, MD 20910
E-mail: w-nws.webmaster@noaa.gov
Page last modified: May 16, 2007
NATIONAL WEATHER SERVICE: for Safety, for Work, for Fun - FOR LIFE